• In Uzbekistan
  • List of Countries
  • For 7 days
  • Water Temperature
  • Satellite Maps
  • Weather Map
  • Weather Widgets
  • user-avatar
    Login

    Hourly Weather Vranjina

    Today, 17 February, Saturday

    Time Temperature Precipitation Wind Pressure Humidity
    00:00 +5°C° 0 mm 2 mps 740 mmHg 62%
    01:00 +5°C° 0 mm 2 mps 740 mmHg 61%
    02:00 +5°C° 0 mm 2 mps 740 mmHg 61%
    03:00 +5°C° 0 mm 2 mps 740 mmHg 61%
    04:00 +5°C° 0 mm 2 mps 740 mmHg 61%
    05:00 +5°C° 0 mm 2 mps 740 mmHg 61%
    06:00 +5°C° 0 mm 2 mps 740 mmHg 61%
    07:00 +5°C° 0 mm 2 mps 740 mmHg 62%
    08:00 +7°C° 0 mm 2 mps 740 mmHg 62%
    09:00 +9°C° 0 mm 2 mps 740 mmHg 63%
    10:00 +11°C° 0 mm 1 mps 739 mmHg 63%
    11:00 +12°C° 0 mm 1 mps 739 mmHg 61%
    12:00 +13°C° 0 mm 1 mps 739 mmHg 59%
    13:00 +14°C° 0 mm 1 mps 738 mmHg 58%
    14:00 +13°C° 0 mm 1 mps 738 mmHg 61%
    15:00 +13°C° 0 mm 1 mps 737 mmHg 65%
    16:00 +12°C° 0 mm 1 mps 737 mmHg 68%
    17:00 +11°C° 0 mm 1 mps 737 mmHg 68%
    18:00 +10°C° 0 mm 1 mps 737 mmHg 69%
    19:00 +8°C° 0 mm 1 mps 737 mmHg 69%
    20:00 +8°C° 0 mm 1 mps 737 mmHg 68%
    21:00 +8°C° 0 mm 1 mps 737 mmHg 67%
    22:00 +7°C° 0 mm 2 mps 737 mmHg 67%
    23:00 +7°C° 0 mm 2 mps 737 mmHg 68%

    Tomorrow, 18 February, Sunday

    Time Temperature Precipitation Wind Pressure Humidity
    00:00 +6°C° 0 mm 2 mps 736 mmHg 69%
    01:00 +6°C° 0 mm 2 mps 736 mmHg 70%
    02:00 +6°C° 0 mm 2 mps 736 mmHg 72%
    03:00 +6°C° 0 mm 2 mps 736 mmHg 73%
    04:00 +6°C° 0 mm 2 mps 736 mmHg 75%
    05:00 +6°C° 0 mm 2 mps 736 mmHg 76%
    06:00 +6°C° 0 mm 2 mps 736 mmHg 77%
    07:00 +5°C° 0 mm 3 mps 735 mmHg 78%
    08:00 +7°C° 0.1 mm 3 mps 735 mmHg 78%
    09:00 +8°C° 0.1 mm 3 mps 735 mmHg 78%
    10:00 +9°C° 0.1 mm 3 mps 735 mmHg 77%
    11:00 +9°C° 0.2 mm 3 mps 735 mmHg 77%
    12:00 +10°C° 0.2 mm 3 mps 735 mmHg 76%
    13:00 +10°C° 0.2 mm 3 mps 735 mmHg 75%
    14:00 +10°C° 0.5 mm 2 mps 735 mmHg 77%
    15:00 +10°C° 0.5 mm 2 mps 734 mmHg 79%
    16:00 +9°C° 0.5 mm 2 mps 734 mmHg 81%
    17:00 +9°C° 0.9 mm 2 mps 735 mmHg 82%
    18:00 +8°C° 0.9 mm 2 mps 735 mmHg 84%
    19:00 +8°C° 0.9 mm 2 mps 735 mmHg 85%
    20:00 +8°C° 1 mm 2 mps 735 mmHg 86%
    21:00 +8°C° 1 mm 2 mps 735 mmHg 87%
    22:00 +8°C° 1 mm 3 mps 735 mmHg 87%
    23:00 +7°C° 1 mm 3 mps 735 mmHg 87%

    Day after tomorrow, 19 February, Monday

    Time Temperature Precipitation Wind Pressure Humidity
    00:00 +7°C° 1 mm 3 mps 735 mmHg 87%
    01:00 +7°C° 1 mm 3 mps 734 mmHg 87%
    02:00 +7°C° 0.8 mm 3 mps 734 mmHg 87%
    03:00 +5°C° 0.8 mm 3 mps 734 mmHg 86%
    04:00 +5°C° 0.8 mm 3 mps 734 mmHg 86%
    05:00 +5°C° 0.5 mm 3 mps 734 mmHg 86%
    06:00 +5°C° 0.5 mm 4 mps 734 mmHg 85%
    07:00 +5°C° 0.5 mm 4 mps 734 mmHg 85%
    08:00 +5°C° 0.4 mm 4 mps 734 mmHg 83%
    09:00 +6°C° 0.4 mm 4 mps 734 mmHg 82%
    10:00 +6°C° 0.4 mm 4 mps 734 mmHg 80%
    11:00 +8°C° 0.5 mm 3 mps 733 mmHg 79%
    12:00 +8°C° 0.5 mm 3 mps 733 mmHg 79%
    13:00 +9°C° 0.5 mm 3 mps 732 mmHg 78%
    14:00 +8°C° 0.7 mm 3 mps 732 mmHg 80%
    15:00 +8°C° 0.7 mm 3 mps 732 mmHg 82%
    16:00 +8°C° 0.7 mm 3 mps 732 mmHg 83%
    17:00 +8°C° 0.7 mm 3 mps 732 mmHg 85%
    18:00 +7°C° 0.7 mm 3 mps 732 mmHg 86%
    19:00 +7°C° 0.7 mm 3 mps 732 mmHg 87%
    20:00 +7°C° 0.7 mm 3 mps 732 mmHg 87%
    21:00 +7°C° 0.7 mm 3 mps 732 mmHg 87%
    22:00 +7°C° 0.7 mm 3 mps 732 mmHg 88%
    23:00 +7°C° 0.5 mm 3 mps 732 mmHg 88%

    20 February, Tuesday

    Time Temperature Precipitation Wind Pressure Humidity
    00:00 +7°C° 0.5 mm 3 mps 731 mmHg 88%
    01:00 +5°C° 0.5 mm 3 mps 731 mmHg 88%
    02:00 +5°C° 0.5 mm 3 mps 731 mmHg 88%
    03:00 +5°C° 0.5 mm 3 mps 730 mmHg 89%
    04:00 +5°C° 0.5 mm 3 mps 730 mmHg 89%
    05:00 +7°C° 0.8 mm 3 mps 730 mmHg 89%
    06:00 +7°C° 0.8 mm 3 mps 730 mmHg 89%
    07:00 +7°C° 0.8 mm 3 mps 730 mmHg 90%
    08:00 +7°C° 1.6 mm 3 mps 729 mmHg 90%
    09:00 +7°C° 1.6 mm 3 mps 729 mmHg 91%
    10:00 +7°C° 1.6 mm 3 mps 729 mmHg 92%
    11:00 +7°C° 1.6 mm 3 mps 729 mmHg 92%
    12:00 +7°C° 1.6 mm 3 mps 729 mmHg 92%
    13:00 +7°C° 1.6 mm 3 mps 728 mmHg 92%
    14:00 +7°C° 1.5 mm 3 mps 728 mmHg 92%
    15:00 +7°C° 1.5 mm 3 mps 728 mmHg 93%
    16:00 +7°C° 1.5 mm 3 mps 728 mmHg 93%
    17:00 +7°C° 0.7 mm 3 mps 728 mmHg 93%
    18:00 +7°C° 0.7 mm 3 mps 728 mmHg 92%
    19:00 +7°C° 0.7 mm 2 mps 728 mmHg 92%
    20:00 +7°C° 0.8 mm 2 mps 728 mmHg 92%
    21:00 +7°C° 0.8 mm 2 mps 728 mmHg 93%
    22:00 +7°C° 0.8 mm 2 mps 728 mmHg 94%
    23:00 +7°C° 1.1 mm 2 mps 728 mmHg 94%

    21 February, Wednesday

    Time Temperature Precipitation Wind Pressure Humidity
    00:00 +7°C° 1.1 mm 2 mps 728 mmHg 94%
    01:00 +7°C° 1.1 mm 2 mps 728 mmHg 95%
    02:00 +7°C° 1.4 mm 2 mps 727 mmHg 95%
    03:00 +7°C° 1.4 mm 2 mps 727 mmHg 95%
    04:00 +7°C° 1.4 mm 2 mps 727 mmHg 95%
    05:00 +7°C° 2 mm 3 mps 726 mmHg 95%
    06:00 +7°C° 2 mm 3 mps 726 mmHg 94%
    07:00 +5°C° 2 mm 3 mps 726 mmHg 94%
    08:00 +5°C° 2.8 mm 3 mps 726 mmHg 94%
    09:00 +7°C° 2.8 mm 3 mps 726 mmHg 94%
    10:00 +7°C° 2.8 mm 3 mps 726 mmHg 94%
    11:00 +7°C° 2.4 mm 3 mps 726 mmHg 94%
    12:00 +7°C° 2.4 mm 3 mps 725 mmHg 94%
    13:00 +7°C° 2.4 mm 2 mps 725 mmHg 94%
    14:00 +7°C° 2.3 mm 2 mps 725 mmHg 94%
    15:00 +7°C° 2.3 mm 2 mps 725 mmHg 94%
    16:00 +7°C° 2.3 mm 2 mps 725 mmHg 94%
    17:00 +6°C° 1.5 mm 2 mps 725 mmHg 93%
    18:00 +6°C° 1.5 mm 2 mps 725 mmHg 93%
    19:00 +6°C° 1.5 mm 2 mps 725 mmHg 92%
    20:00 +6°C° 0.9 mm 2 mps 725 mmHg 91%
    21:00 +6°C° 0.9 mm 2 mps 726 mmHg 91%
    22:00 +6°C° 0.9 mm 2 mps 726 mmHg 91%
    23:00 +6°C° 0.8 mm 2 mps 726 mmHg 90%

    22 February, Thursday

    Time Temperature Precipitation Wind Pressure Humidity
    00:00 +6°C° 0.8 mm 2 mps 726 mmHg 90%
    01:00 +6°C° 0.8 mm 2 mps 726 mmHg 90%
    02:00 +6°C° 1.4 mm 2 mps 725 mmHg 90%
    03:00 +6°C° 1.4 mm 2 mps 725 mmHg 91%
    04:00 +6°C° 1.4 mm 2 mps 725 mmHg 91%
    05:00 +6°C° 0.9 mm 2 mps 725 mmHg 91%
    06:00 +5°C° 0.9 mm 3 mps 725 mmHg 91%
    07:00 +5°C° 0.9 mm 3 mps 725 mmHg 90%
    08:00 +7°C° 0.6 mm 3 mps 725 mmHg 89%
    09:00 +7°C° 0.6 mm 2 mps 726 mmHg 88%
    10:00 +8°C° 0.6 mm 2 mps 726 mmHg 86%
    11:00 +8°C° 0.2 mm 2 mps 725 mmHg 85%
    12:00 +9°C° 0.2 mm 2 mps 725 mmHg 84%
    13:00 +9°C° 0.2 mm 2 mps 725 mmHg 82%
    14:00 +10°C° 0 mm 2 mps 725 mmHg 82%
    15:00 +10°C° 0 mm 2 mps 725 mmHg 82%
    16:00 +10°C° 0 mm 2 mps 725 mmHg 82%
    17:00 +9°C° 0 mm 2 mps 726 mmHg 83%
    18:00 +8°C° 0 mm 2 mps 726 mmHg 85%
    19:00 +7°C° 0 mm 2 mps 726 mmHg 87%
    20:00 +7°C° 0 mm 2 mps 726 mmHg 86%
    21:00 +6°C° 0 mm 2 mps 727 mmHg 85%
    22:00 +5°C° 0 mm 3 mps 727 mmHg 84%
    23:00 +5°C° 0.1 mm 3 mps 727 mmHg 84%
    Show more